Theta_e
315 318 322 324 324 324 323 323 325 325 326 325 324 324 325 325 326 331 342 343 343 341 344 341 341 341 340 338 339 337 339 340 339 338 338 338 338 337 335 336 337 338 341 340 338 338 337 333 334
314 320 322 323 322 322 321 323 321 323 324 323 323 323 325 327 329 333 341 343 342 342 343 343 340 341 340 338 339 337 337 338 338 338 338 337 336 335 336 337 337 338 338 339 339 338 336 334 332
317 321 323 322 322 320 321 321 322 321 321 322 323 323 323 327 330 338 341 343 343 342 342 343 339 339 339 338 340 338 337 337 337 337 336 336 335 336 336 338 338 338 339 339 337 336 334 330 325
318 320 319 319 320 320 321 319 321 321 320 321 322 322 323 329 332 338 343 343 343 342 342 342 339 338 339 338 339 338 337 337 336 336 335 336 336 336 337 338 338 339 338 336 334 333 326 322 321
318 319 319 320 319 318 319 319 319 320 319 319 319 320 322 326 324 335 342 343 343 342 342 340 339 338 338 338 338 338 337 336 336 336 336 337 337 338 338 339 337 336 334 333 330 322 322 321 320
318 318 317 317 316 316 317 318 317 318 318 319 319 319 322 321 319 332 338 341 342 342 342 341 339 338 338 337 337 337 336 336 337 336 336 338 338 338 338 336 334 333 328 323 323 324 319 314 309
317 317 315 315 314 315 317 316 317 317 318 319 318 320 321 319 316 329 337 340 341 342 342 341 340 339 338 338 337 336 336 336 337 337 337 338 338 337 335 334 329 324 325 326 324 318 310 305 304
317 315 314 314 314 314 317 316 316 317 317 317 317 321 321 318 315 325 337 339 340 341 341 340 340 340 340 339 337 336 335 336 337 337 338 337 336 333 331 326 326 326 325 321 312 306 304 303 302
315 315 313 314 314 315 316 315 314 314 314 314 315 316 317 316 315 318 330 334 336 336 334 333 335 334 335 335 335 335 334 335 336 337 336 334 333 331 326 325 323 322 317 309 305 303 302 301 301
316 313 313 314 314 315 314 313 312 312 312 312 313 313 313 313 313 315 317 320 325 330 334 333 336 335 333 333 333 333 332 334 334 333 332 332 331 327 322 322 319 314 308 304 302 301 301 306 306
315 313 314 313 314 314 312 311 311 311 312 312 309 309 309 309 311 313 312 312 312 313 328 334 333 333 332 327 324 327 323 323 327 331 330 330 327 321 319 317 312 307 307 306 305 305 306 306 306
313 312 312 313 312 310 310 311 310 311 311 308 308 308 308 308 309 307 307 307 308 309 310 329 333 330 324 323 324 327 323 324 321 322 325 329 326 320 318 314 310 305 306 305 306 305 305 305 305
310 310 309 309 309 308 308 308 308 309 308 307 308 307 307 307 307 306 306 306 306 306 308 310 326 331 327 324 323 323 322 323 322 320 321 327 325 317 313 310 308 305 305 305 306 305 305 305 306
308 308 308 308 307 306 306 307 306 307 306 307 307 308 307 307 306 306 305 304 304 305 307 308 312 330 330 326 327 323 324 323 322 322 322 323 325 319 309 308 307 305 305 305 305 305 305 306 307
306 306 306 306 306 307 306 307 307 307 306 307 307 307 307 307 305 304 303 302 302 304 306 309 311 317 329 330 327 327 325 323 323 325 324 325 324 321 310 306 306 304 303 304 304 304 305 306 306
305 305 306 307 307 307 307 306 308 306 306 307 307 307 306 306 304 303 301 301 301 303 305 308 311 317 326 327 328 326 327 324 323 324 325 325 324 317 312 305 304 302 303 304 304 304 305 306 306
307 305 307 306 306 307 307 307 309 306 306 306 306 305 305 304 303 301 300 300 300 303 304 308 312 321 326 325 325 325 325 326 323 323 323 323 323 320 313 307 305 302 302 303 302 304 305 306 305
307 306 305 305 307 306 306 306 306 306 304 305 304 304 304 303 302 300 299 299 301 302 304 308 313 319 325 324 324 324 322 322 322 320 319 319 318 311 306 304 302 301 301 301 302 303 305 305 303
305 305 305 305 305 305 305 305 306 306 305 304 304 303 302 302 300 299 299 299 301 302 304 306 311 314 320 321 320 320 320 319 319 318 318 318 315 310 309 307 304 300 299 299 299 300 304 304 303
305 305 305 305 305 305 305 305 306 306 306 303 302 301 300 300 300 298 298 298 300 301 301 302 303 307 315 317 318 318 318 317 316 315 314 314 313 311 307 307 302 300 300 298 299 300 302 303 304
305 305 305 305 305 305 306 306 306 306 304 300 299 298 298 297 297 297 296 296 297 298 300 300 300 303 309 312 315 315 315 314 313 312 312 311 311 310 308 307 306 307 306 304 301 299 300 301 303
305 305 305 305 306 306 304 306 304 306 303 300 299 298 297 296 296 295 294 294 294 296 297 299 299 299 303 308 310 312 312 313 311 311 311 310 310 309 309 309 308 306 300 299 298 299 301 303 304
306 305 305 305 306 305 305 306 305 304 305 302 299 297 296 295 294 294 293 293 293 293 294 296 297 298 298 302 304 306 307 308 308 309 309 309 309 308 308 308 306 303 300 298 299 299 300 300 302
304 304 304 305 305 308 305 305 304 305 303 304 299 296 295 295 294 293 292 292 292 292 292 293 294 295 296 297 298 301 303 305 306 305 305 306 306 307 306 306 304 302 302 299 297 297 298 299 298
304 305 309 310 310 308 302 302 304 303 303 302 298 295 295 295 294 294 293 292 291 291 291 291 292 292 293 295 296 297 299 301 302 304 305 305 304 304 304 304 303 302 303 301 301 301 299 297 298
305 306 308 306 305 306 301 303 303 300 300 299 297 295 294 294 294 293 293 292 291 291 291 291 291 291 292 292 293 295 295 297 299 301 302 304 304 304 304 304 304 304 304 304 304 305 302 297 297
304 306 304 307 306 303 302 302 300 298 296 295 294 294 294 294 294 293 293 292 292 291 290 290 290 290 290 291 291 292 293 294 294 296 299 301 302 302 303 303 303 304 303 303 303 303 302 297 296
302 302 303 304 303 303 302 302 302 300 298 295 294 294 294 294 293 293 292 292 292 291 290 290 290 290 289 290 290 290 291 291 292 293 293 295 297 299 300 302 302 302 303 302 302 301 301 297 295
302 302 302 302 303 305 305 302 300 301 301 297 295 294 294 293 293 292 292 291 292 292 291 290 290 289 289 289 289 289 289 289 290 290 291 292 293 295 298 299 300 301 300 302 301 301 301 297 296
296 299 301 305 303 302 303 304 299 298 298 300 297 295 294 293 293 293 292 291 291 291 292 291 290 290 289 288 287 288 287 286 286 287 288 289 291 292 294 297 298 298 299 298 301 300 300 299 296
Wind_Speed
9 8 6 6 5 4 7 3 7 3 4 6 11 8 13 10 6 4 6 5 3 8 10 11 11 10 11 12 13 15 15 14 13 14 15 14 13 12 10 9 9 9 13 13 13 13 11 8 8
7 6 5 2 5 7 1 4 6 8 10 11 10 8 7 3 8 3 5 9 2 6 8 10 11 12 12 13 13 14 15 14 14 14 14 14 12 11 11 11 10 10 11 14 13 13 10 9 8
6 4 4 4 3 6 7 8 7 7 7 7 7 9 5 7 12 7 11 4 2 5 7 8 11 12 12 13 13 15 15 15 14 14 14 14 13 12 12 12 11 12 12 15 14 10 9 9 8
3 5 4 6 7 3 7 11 9 13 11 4 7 11 2 10 8 10 7 3 1 4 6 4 7 11 11 12 13 15 15 15 14 14 14 15 15 14 14 14 15 17 17 12 9 8 9 8 8
3 2 5 5 6 4 6 8 11 12 12 9 8 10 7 9 14 10 8 3 2 5 7 6 11 8 11 11 12 14 15 15 14 14 15 16 17 17 18 18 18 14 11 10 10 10 9 8 7
3 3 5 6 4 3 5 7 9 9 8 7 8 10 6 8 21 14 6 5 3 3 5 7 9 10 11 11 11 13 16 16 15 16 16 17 18 18 18 16 14 10 10 12 11 10 9 7 7
4 3 4 6 6 5 4 8 7 10 8 8 11 9 6 15 20 15 8 2 3 4 6 7 8 11 12 11 12 13 14 16 16 17 19 20 19 17 15 14 12 13 12 11 9 8 8 7 7
4 3 3 1 5 5 5 7 5 9 11 9 7 8 11 16 20 16 7 3 4 6 6 8 9 10 10 9 12 12 14 17 20 21 21 21 18 16 14 13 15 14 12 10 9 8 7 5 5
2 4 3 3 4 5 2 6 8 8 12 10 5 10 12 14 17 16 10 5 4 7 8 8 9 9 7 5 6 12 13 18 21 22 23 20 18 16 13 13 15 14 11 10 8 7 5 5 6
4 3 4 4 5 7 7 7 10 9 11 12 10 14 15 15 17 14 12 13 13 14 12 9 4 7 10 8 5 5 6 8 18 24 24 21 17 14 13 17 15 12 9 7 6 6 8 9 6
0 3 3 2 4 7 9 9 4 8 9 10 13 16 16 16 14 13 14 14 16 16 13 7 5 5 6 8 12 9 20 22 15 17 23 21 22 17 12 15 12 11 9 7 7 7 6 7 6
6 2 4 3 2 5 10 11 11 11 8 8 9 12 12 12 11 11 15 18 18 15 14 12 5 6 5 5 13 17 9 9 24 14 13 20 18 15 12 12 11 9 8 8 7 7 8 9 9
7 3 4 6 7 10 12 14 13 12 3 9 7 8 9 10 12 12 12 13 18 17 15 14 11 9 11 7 7 6 7 7 9 17 15 15 16 11 9 9 9 8 8 7 8 8 8 9 9
2 8 10 7 8 8 9 12 3 2 7 9 7 7 8 8 13 13 13 16 17 19 17 16 15 11 9 11 11 9 11 8 2 5 11 10 15 15 9 8 9 9 9 8 9 8 9 9 9
5 8 8 9 5 4 6 12 10 3 7 8 7 9 8 8 12 13 14 14 17 17 17 16 15 13 10 11 10 12 15 15 16 14 12 12 13 16 15 8 9 9 9 9 10 9 10 11 9
5 5 6 8 4 4 3 14 7 3 7 9 8 8 9 9 10 13 16 15 15 16 17 16 14 12 10 6 11 14 16 18 17 16 17 13 13 14 13 11 10 9 8 9 9 9 9 10 9
6 8 7 5 4 3 8 11 5 1 7 9 8 8 8 9 11 13 15 16 16 15 16 15 13 10 6 4 5 7 13 14 15 17 22 20 16 17 16 14 13 9 8 7 9 9 9 9 9
9 7 6 9 4 7 13 18 16 4 7 8 6 7 7 9 10 14 15 15 15 15 15 14 11 9 3 3 5 6 6 6 9 14 21 19 18 19 19 16 14 11 11 9 8 11 10 7 8
9 10 14 13 7 7 15 17 15 10 7 7 5 5 5 7 9 13 15 14 15 16 15 14 12 14 7 2 4 5 5 4 5 9 14 18 17 15 15 15 15 14 13 12 11 11 12 11 8
9 12 14 12 7 6 14 18 17 14 11 6 5 2 4 6 8 12 15 15 16 16 17 16 15 14 12 10 2 2 5 6 5 7 10 14 17 17 16 17 18 17 19 15 12 10 11 7 10
10 13 14 15 12 14 15 17 20 13 5 6 4 1 2 5 8 10 15 18 17 18 18 17 17 16 15 9 6 3 5 7 7 9 10 13 15 15 16 17 17 16 15 15 12 12 12 9 11
11 5 10 11 8 6 1 9 14 9 10 10 6 4 2 4 7 9 13 17 20 19 17 18 17 19 19 15 12 9 5 2 1 8 10 12 13 14 14 16 16 16 15 15 15 14 13 10 8
3 3 4 8 11 13 13 7 6 3 12 12 9 5 3 4 5 8 11 14 17 18 19 18 18 18 20 19 18 15 13 10 4 5 9 10 12 11 13 14 14 16 16 13 14 14 14 12 8
2 4 6 5 6 7 15 13 9 6 3 8 9 7 5 4 4 7 9 11 14 16 17 18 19 20 19 19 20 18 15 13 10 5 3 6 8 10 10 11 13 15 16 16 14 14 11 9 11
5 6 3 4 4 6 6 7 14 6 4 4 10 9 6 4 3 5 9 11 13 16 17 17 19 20 19 19 19 17 15 15 12 9 6 1 2 5 8 11 14 16 16 16 12 11 10 9 10
7 8 5 7 9 12 4 6 3 5 3 2 9 9 7 5 3 4 6 9 10 13 14 16 17 18 19 18 17 16 17 14 12 11 10 6 5 4 6 10 14 16 16 16 16 15 13 10 10
2 6 6 11 10 6 10 18 4 4 3 5 7 9 9 7 4 3 4 7 9 10 11 12 13 14 15 16 16 17 16 16 14 12 10 7 7 7 6 8 10 14 16 17 16 15 14 13 10
6 5 4 4 6 15 14 17 12 6 8 9 11 11 10 7 5 3 4 6 5 5 6 8 10 11 12 13 14 14 15 15 14 14 13 11 8 7 5 6 8 12 14 17 18 16 15 14 12
5 4 7 8 8 13 16 13 3 1 7 12 13 13 11 8 5 2 3 8 7 6 5 6 7 9 11 11 12 13 14 13 13 14 14 14 12 9 6 6 9 10 12 15 19 19 16 15 13
4 8 12 10 17 14 13 16 5 2 5 9 12 11 10 8 6 3 5 8 7 6 7 6 5 5 6 8 10 11 12 13 15 16 16 15 15 14 10 8 7 9 10 11 14 19 18 18 16
Wind_Direction
331 307 297 255 255 222 275 325 338 318 307 22 321 315 320 313 313 3 21 22 35 156 156 169 178 189 196 201 196 191 188 180 173 166 168 173 171 168 164 160 159 156 150 141 132 129 126 126 114
328 312 245 283 262 255 341 31 292 1 355 323 305 319 273 17 28 10 360 6 117 161 172 176 182 192 198 204 198 196 194 189 182 175 171 172 173 172 167 161 161 164 158 141 142 138 136 120 116
320 282 272 278 283 288 349 27 9 335 331 335 319 333 334 359 14 9 0 353 181 174 182 197 192 196 198 201 202 198 197 193 188 183 177 173 173 170 165 159 156 156 146 132 137 127 124 120 115
278 200 210 257 270 298 305 328 344 314 311 333 318 295 336 52 358 344 356 12 223 207 204 222 208 205 210 209 202 199 197 196 191 186 180 173 168 163 163 153 141 136 139 129 127 134 122 120 119
248 253 265 261 285 301 320 325 323 308 300 305 353 293 300 46 3 354 353 352 287 233 230 231 201 218 227 215 207 204 201 198 192 184 176 169 162 160 153 147 137 139 139 141 139 125 119 118 115
219 300 239 271 347 353 317 7 319 307 331 333 326 319 297 32 1 346 349 322 300 255 231 228 219 227 228 224 213 211 209 202 193 181 173 163 161 154 149 148 151 149 151 139 133 128 122 115 109
302 267 308 301 292 305 12 342 333 333 322 13 332 299 325 21 353 346 332 8 283 262 238 234 228 236 229 224 220 216 211 203 192 178 167 162 159 157 159 162 159 143 138 134 130 125 122 119 116
290 265 272 222 327 317 46 329 342 333 314 331 332 332 326 357 346 350 329 316 296 293 260 245 238 238 232 225 224 225 211 202 186 177 170 168 163 155 160 148 136 134 134 132 130 125 119 115 117
276 247 270 329 305 13 61 330 316 330 282 300 302 300 319 325 338 348 337 310 319 304 306 290 284 284 283 276 265 238 234 215 198 179 172 163 158 161 134 153 139 138 137 135 133 124 102 84 97
269 264 32 4 333 309 316 312 312 305 310 297 323 322 321 325 328 336 344 345 353 352 341 330 286 246 245 206 19 65 5 228 182 173 168 164 163 147 147 156 151 149 146 141 129 108 90 85 86
244 292 37 297 331 316 303 293 327 293 296 351 324 319 324 314 315 334 344 347 345 346 352 352 316 254 245 282 308 301 334 329 357 188 165 165 160 155 144 147 138 136 113 109 96 81 89 93 89
262 297 295 314 353 300 289 306 287 280 289 342 326 341 335 342 347 341 341 341 340 342 346 339 296 240 230 270 239 236 335 350 332 336 153 164 166 155 155 154 160 146 139 126 114 108 94 84 85
249 264 274 274 278 278 286 276 272 274 321 314 327 333 350 342 343 344 346 343 338 339 334 327 323 272 251 215 154 159 206 248 302 344 308 173 179 164 159 158 147 148 134 124 111 105 99 90 82
360 288 276 276 274 271 275 281 292 168 332 293 313 321 335 342 341 336 351 346 344 334 331 325 314 290 251 231 218 198 188 202 162 242 258 211 201 183 161 155 149 138 140 130 121 114 106 96 90
288 287 274 245 242 268 287 263 231 355 314 291 303 313 325 330 341 342 341 343 339 331 329 326 316 302 266 209 206 207 206 181 178 190 202 245 219 200 181 163 130 135 140 130 122 115 111 105 97
263 258 264 133 228 176 245 280 144 325 313 303 313 318 321 326 334 339 336 342 338 334 333 331 323 308 287 238 200 196 206 215 206 210 193 206 214 208 189 162 153 139 125 126 122 121 116 112 112
208 274 232 263 185 287 226 284 137 223 304 299 314 324 327 332 340 347 343 345 343 342 340 341 336 330 298 274 184 193 194 209 228 219 203 199 202 196 194 178 170 160 124 126 127 119 120 119 117
305 248 251 265 150 251 267 267 272 254 291 290 307 321 334 341 356 348 353 352 351 353 356 353 351 1 38 101 151 156 165 184 202 209 204 197 192 188 183 174 172 156 152 153 131 129 119 117 128
292 283 278 280 287 294 269 276 282 268 253 262 285 319 342 356 359 2 1 2 1 8 12 8 5 5 13 124 100 125 140 157 197 211 213 207 197 198 193 183 173 169 158 152 159 146 127 127 140
263 269 271 284 288 267 282 280 277 261 236 260 274 296 356 2 8 13 11 14 15 13 17 19 12 18 29 47 83 140 171 167 189 199 207 204 198 199 196 191 182 177 164 154 153 139 135 150 176
257 267 279 282 300 270 273 281 260 236 195 209 215 207 35 27 18 19 22 20 21 21 17 22 21 28 42 48 41 95 122 131 147 168 186 195 194 197 202 198 196 191 179 176 166 168 177 170 197
285 313 269 277 288 279 141 289 290 203 205 210 197 193 109 51 45 34 27 27 24 24 26 26 29 33 44 51 58 43 55 110 153 192 183 186 196 198 199 199 198 196 178 174 178 183 185 183 177
288 349 284 278 278 290 266 248 276 225 217 206 196 175 135 70 50 47 37 33 31 27 29 32 34 38 39 50 54 58 43 48 65 162 174 182 188 201 203 205 202 195 188 185 198 196 201 187 172
2 283 265 268 276 259 258 235 278 293 283 210 173 182 155 105 73 60 52 41 38 32 31 33 36 38 38 42 45 52 50 47 42 65 139 178 184 197 205 205 203 198 197 198 202 201 213 217 192
227 264 283 242 220 256 23 289 250 315 12 311 179 175 156 139 90 53 42 37 34 32 28 28 29 32 34 42 42 42 45 44 43 36 20 24 221 224 221 212 211 212 213 217 223 227 233 228 235
217 219 260 287 291 311 108 251 293 21 350 246 161 159 154 155 130 64 48 40 32 31 29 26 25 27 26 31 35 37 42 41 34 26 18 1 326 317 297 245 234 231 229 228 237 243 240 240 239
105 223 281 283 265 272 264 274 200 93 119 157 169 182 177 166 160 108 56 40 27 21 26 26 27 28 28 26 25 28 33 36 31 25 28 17 6 341 295 275 267 251 242 239 240 243 241 237 239
242 9 252 206 270 273 275 278 271 186 202 204 198 202 187 179 175 136 54 19 10 5 9 19 27 29 26 27 29 25 23 26 28 26 22 13 0 351 322 295 274 270 260 244 245 243 240 239 240
200 233 225 279 263 276 280 271 44 276 218 210 214 209 198 191 183 158 359 351 332 325 342 4 16 15 17 21 24 26 25 23 24 23 16 10 4 347 324 302 264 257 263 255 248 248 246 242 239
282 276 266 248 264 251 260 270 155 199 279 233 217 213 203 199 197 247 317 333 331 318 322 331 345 1 6 11 16 18 19 20 21 17 15 9 2 357 340 315 287 275 267 263 253 250 246 240 238